Weather History for K0E0 - March, 2014

Change the Weather History Date:

Wednesday, March 5, 2014

  Actual Average (KABQ) Record (KABQ)
Temperature  
Mean Temperature 44 °F 46 °F  
Max Temperature 56 °F 58 °F 78 °F (1910)
Min Temperature 33 °F 34 °F 9 °F (1966)
Degree Days  
Heating Degree Days 20 19  
Month to date heating degree days 98  
Since 1 July heating degree days 3401  
Cooling Degree Days 0 0  
Month to date cooling degree days 0  
Year to date cooling degree days 0  
Moisture  
Dew Point 27 °F    
Average Humidity 55    
Maximum Humidity 82    
Minimum Humidity 22    
Precipitation  
Precipitation 0.00 in 0.02 in 0.25 in (1959)
Month to date precipitation 0.09  
Year to date precipitation 0.95  
Snow  
Snow 0.00 in - - ()
Month to date snowfall  
Since 1 July snowfall  
Snow Depth -    
Sea Level Pressure  
Sea Level Pressure 30.12 in    
Wind  
Wind Speed 11 mph (NW)    
Max Wind Speed 24 mph    
Max Gust Speed 31 mph    
Visibility 10 miles    
Events      
T = Trace of Precipitation, MM = Missing Value Source: NWS Daily Summary

Daily Weather History Graph

Daily Weather History Graph

Search for Another Location

Airport or City:

Trip Planner

Search our weather history database for the weather conditions in past years. The results will help you decide how hot, cold, wet, or windy it might be!

Date:

Astronomy

Mar. 05, 2014 Rise Set
Actual Time 6:28 AM MST 6:03 PM MST
Civil Twilight 6:02 AM MST 6:28 PM MST
Nautical Twilight 5:33 AM MST 6:57 PM MST
Astronomical Twilight 5:04 AM MST 7:27 PM MST
Moon 9:07 AM MST (3/5) 11:01 PM MST (3/5)
Length of Visible Light 12h 25m
Length of Day
11h 35m
Waxing Crescent, 24% of the Moon is Illuminated
Mar 5
Waxing Crescent
Mar 8
First Quarter
Mar 16
Full
Mar 23
Last Quarter
Mar 30
New

Hourly Weather History & Observations

Time (MST) Temp. Windchill Dew Point Humidity Pressure Visibility Wind Dir Wind Speed Gust Speed Precip Events Conditions
12:15 AM 37.6 °F 30.5 °F 31.8 °F 80% 29.96 in 10.0 mi WNW 10.4 mph - N/A   Clear
12:35 AM 38.3 °F 29.7 °F 32.0 °F 78% 29.96 in 10.0 mi WNW 15.0 mph - N/A   Clear
12:55 AM 39.2 °F 28.5 °F 32.2 °F 76% 29.96 in 10.0 mi WNW 24.2 mph 31.1 mph N/A   Mostly Cloudy
1:15 AM 38.7 °F 28.8 °F 32.0 °F 77% 29.96 in 10.0 mi WNW 19.6 mph - N/A   Mostly Cloudy
1:35 AM 38.7 °F 28.3 °F 31.8 °F 76% 29.96 in 10.0 mi WNW 21.9 mph 26.5 mph N/A   Scattered Clouds
1:55 AM 38.3 °F 28.1 °F 31.6 °F 77% 29.96 in 10.0 mi NW 20.7 mph 27.6 mph N/A   Clear
2:15 AM 38.3 °F 28.7 °F 31.5 °F 76% 29.97 in 10.0 mi NW 18.4 mph 25.3 mph N/A   Scattered Clouds
2:35 AM 37.4 °F 28.5 °F 31.1 °F 78% 29.98 in 10.0 mi NNW 15.0 mph - N/A   Clear
2:55 AM 36.5 °F 31.0 °F 30.9 °F 80% 29.99 in 10.0 mi North 6.9 mph - N/A   Clear
3:15 AM 35.6 °F 28.0 °F 30.7 °F 82% 29.99 in 10.0 mi NW 10.4 mph - N/A   Clear
3:35 AM 36.5 °F 27.0 °F 30.9 °F 80% 30.01 in 10.0 mi NW 16.1 mph 20.7 mph N/A   Scattered Clouds
3:55 AM 37.8 °F 28.6 °F 31.1 °F 77% 30.02 in 10.0 mi NW 16.1 mph - N/A   Overcast
4:15 AM 37.4 °F 28.5 °F 30.6 °F 76% 30.02 in 10.0 mi NW 15.0 mph 25.3 mph N/A   Mostly Cloudy
4:35 AM 36.7 °F 27.6 °F 30.2 °F 77% 30.02 in 10.0 mi NW 15.0 mph - N/A   Clear
4:55 AM 36.5 °F 27.4 °F 30.2 °F 78% 30.03 in 10.0 mi NW 15.0 mph - N/A   Clear
5:15 AM 36.5 °F 29.2 °F 30.2 °F 78% 30.05 in 10.0 mi NNW 10.4 mph - N/A   Clear
5:35 AM 35.8 °F 28.8 °F 29.8 °F 79% 30.05 in 10.0 mi NNW 9.2 mph - N/A   Clear
5:55 AM 35.6 °F 26.2 °F 30.2 °F 81% 30.06 in 10.0 mi North 15.0 mph 23.0 mph N/A   Clear
6:15 AM 36.5 °F 26.7 °F 30.0 °F 77% 30.06 in 10.0 mi NW 17.3 mph 20.7 mph N/A   Clear
6:35 AM 36.3 °F 27.1 °F 29.8 °F 77% 30.07 in 10.0 mi NW 15.0 mph - N/A   Clear
6:55 AM 35.8 °F 27.8 °F 29.8 °F 79% 30.08 in 10.0 mi NNW 11.5 mph - N/A   Clear
7:15 AM 36.3 °F 30.8 °F 30.2 °F 78% 30.09 in 10.0 mi NNW 6.9 mph - N/A   Clear
7:35 AM 38.5 °F 31.1 °F 31.1 °F 75% 30.10 in 10.0 mi NNW 11.5 mph - N/A   Clear
7:55 AM 40.3 °F 35.5 °F 31.5 °F 71% 30.13 in 10.0 mi North 6.9 mph - N/A   Clear
8:15 AM 40.5 °F 36.5 °F 32.0 °F 72% 30.14 in 10.0 mi NNE 5.8 mph - N/A   Clear
8:35 AM 42.1 °F 37.1 °F 32.0 °F 67% 30.13 in 10.0 mi NE 8.1 mph - N/A   Clear
8:55 AM 44.1 °F 40.1 °F 32.0 °F 63% 30.14 in 10.0 mi NNE 6.9 mph - N/A   Clear
9:10 AM 44.6 °F 40.7 °F 32.0 °F 61% 30.14 in 10.0 mi North 6.9 mph - N/A   Clear
9:35 AM 46.4 °F 44.3 °F 31.6 °F 56% 30.16 in 10.0 mi NNE 4.6 mph - N/A   Scattered Clouds
9:55 AM 46.8 °F - 31.8 °F 56% 30.15 in 10.0 mi NW 5.8 mph - N/A   Scattered Clouds
10:15 AM 47.5 °F - 32.2 °F 55% 30.16 in 10.0 mi North 6.9 mph - N/A   Mostly Cloudy
10:35 AM 47.3 °F - 30.9 °F 53% 30.16 in 10.0 mi North 5.8 mph - N/A   Scattered Clouds
10:55 AM 48.4 °F - 30.7 °F 51% 30.17 in 10.0 mi West 3.5 mph - N/A   Scattered Clouds
11:15 AM 49.8 °F - 30.7 °F 48% 30.17 in 10.0 mi Calm Calm - N/A   Scattered Clouds
11:35 AM 50.5 °F - 30.7 °F 47% 30.16 in 10.0 mi Calm Calm - N/A   Mostly Cloudy
11:55 AM 51.4 °F - 29.5 °F 43% 30.16 in 10.0 mi SW 5.8 mph - N/A   Scattered Clouds
12:15 PM 51.6 °F - 28.2 °F 41% 30.15 in 10.0 mi SSE 3.5 mph - N/A   Scattered Clouds
12:35 PM 52.5 °F - 26.2 °F 36% 30.16 in 10.0 mi NNW 3.5 mph - N/A   Mostly Cloudy
12:55 PM 52.7 °F - 26.6 °F 36% 30.15 in 10.0 mi WSW 3.5 mph - N/A   Scattered Clouds
1:15 PM 54.3 °F - 24.6 °F 32% 30.14 in 10.0 mi North 8.1 mph - N/A   Scattered Clouds
1:35 PM 54.9 °F - 25.3 °F 32% 30.14 in 10.0 mi NW 3.5 mph - N/A   Clear
1:55 PM 56.3 °F - 22.5 °F 27% 30.14 in 10.0 mi North 9.2 mph - N/A   Clear
2:15 PM 54.5 °F - 24.1 °F 31% 30.14 in 10.0 mi West 5.8 mph - N/A   Scattered Clouds
2:35 PM 55.9 °F - 23.5 °F 29% 30.14 in 10.0 mi West 6.9 mph - N/A   Scattered Clouds
2:55 PM 56.3 °F - 20.5 °F 25% 30.14 in 10.0 mi NNW 12.7 mph 17.3 mph N/A   Clear
3:15 PM 56.7 °F - 17.6 °F 22% 30.14 in 10.0 mi NNW 9.2 mph 18.4 mph N/A   Clear
3:35 PM 56.7 °F - 18.3 °F 22% 30.14 in 10.0 mi North 6.9 mph - N/A   Clear
3:55 PM 56.8 °F - 19.6 °F 23% 30.14 in 10.0 mi NW 8.1 mph - N/A   Clear
4:15 PM 56.7 °F - 22.5 °F 27% 30.15 in 10.0 mi NNW 10.4 mph - N/A   Clear
4:35 PM 56.3 °F - 21.4 °F 26% 30.15 in 10.0 mi NW 5.8 mph - N/A   Clear
4:55 PM 55.6 °F - 21.4 °F 26% 30.15 in 10.0 mi NNW 5.8 mph - N/A   Clear
5:15 PM 55.0 °F - 22.1 °F 28% 30.15 in 10.0 mi North 3.5 mph - N/A   Clear
5:35 PM 54.1 °F - 22.1 °F 29% 30.16 in 10.0 mi West 3.5 mph - N/A   Clear
5:55 PM 51.8 °F - 18.9 °F 27% 30.16 in 10.0 mi West 9.2 mph - N/A   Clear
6:15 PM 49.6 °F - 18.5 °F 29% 30.16 in 10.0 mi West 9.2 mph - N/A   Clear
6:35 PM 48.6 °F - 19.0 °F 31% 30.17 in 10.0 mi West 8.1 mph - N/A   Clear
6:55 PM 45.5 °F 41.8 °F 18.9 °F 35% 30.18 in 10.0 mi West 6.9 mph - N/A   Clear
7:15 PM 41.9 °F 36.3 °F 19.4 °F 41% 30.18 in 10.0 mi West 9.2 mph - N/A   Clear
7:30 PM 41.2 °F 36.0 °F 19.2 °F 41% 30.19 in 10.0 mi West 8.1 mph - N/A   Clear
7:55 PM 39.6 °F - 19.0 °F 44% 30.20 in 10.0 mi Calm Calm - N/A   Clear
8:15 PM 41.0 °F - 17.4 °F 39% 30.21 in 10.0 mi Calm Calm - N/A   Clear
8:35 PM 33.8 °F 28.6 °F 18.3 °F 53% 30.21 in 10.0 mi ENE 5.8 mph - N/A   Clear
8:55 PM 33.8 °F 27.7 °F 19.0 °F 55% 30.22 in 10.0 mi East 6.9 mph - N/A   Clear
9:15 PM 36.0 °F 32.1 °F 19.2 °F 51% 30.23 in 10.0 mi ESE 4.6 mph - N/A   Clear
9:35 PM 38.5 °F 33.4 °F 23.5 °F 55% 30.23 in 10.0 mi SE 6.9 mph - N/A   Clear
9:55 PM 37.2 °F 33.6 °F 23.9 °F 59% 30.23 in 10.0 mi SE 4.6 mph - N/A   Clear
10:15 PM 36.3 °F 29.5 °F 24.8 °F 63% 30.23 in 10.0 mi SE 9.2 mph - N/A   Clear
10:35 PM 36.5 °F 29.7 °F 25.5 °F 64% 30.23 in 10.0 mi SE 9.2 mph - N/A   Clear
10:55 PM 35.8 °F 28.3 °F 25.7 °F 67% 30.24 in 10.0 mi SE 10.4 mph - N/A   Clear
11:15 PM 34.9 °F 28.3 °F 26.1 °F 70% 30.24 in 10.0 mi SE 8.1 mph - N/A   Clear
11:35 PM 34.5 °F 30.4 °F 25.9 °F 71% 30.24 in 10.0 mi SE 4.6 mph - N/A   Clear
11:55 PM 33.1 °F - 25.7 °F 74% 30.24 in 10.0 mi Calm Calm - N/A   Clear